Showing default

YAOGAN-30 X, 48423

Orbit data source: Space-Track

YAOGAN-30 X, 48423 is a payload satellite owned by PLA SSF (CN) in LEO that was launched on Thu, 06 May 2021 UTC via a CHANG ZHENG 2C launch vehicle from the Xichang Space Center, China (XSC). Payload-class satellites include a variety of spacecraft equipped with specific instruments for various scientific and technological missions. These include communications satellites like Starlink; space stations such as the ISS; scientific satellites like the Hubble; Earth observation satellites from companies like Planet Labs, Umbra, and HawkEye 360; GPS; miniature CubeSats for education and research; and military/defense satellites.

Loading next visibility...
Identifier
48423, 2021-039A
Orbit
LEO
Country
Flag of CNCN / PRC
Related business
Manufacturer
SECM
Mission
Operational Defense Sigint
Bus & Motor
Unknown
Mass
~500 kg wet, ~500 kg dry
Launch date (UTC)
2021-05-06 (5 years ago)
Launch vehicle
CHANG ZHENG 2C
Launch site
Xichang Space Center, China (XSC)
Object type
Payload
Rocket body
Debris
Shape & HBR
Box + 2 Pan, 0.5 m
Radar Cross Section
0.446 m², Large (>1 m²)

Expand to show TLE details & history
Last TLE update: 21 hours ago

TLE from 21 hours ago
0 YAOGAN-30 X
1 48423U 21039A   26172.54829672  .00002062  00000-0  15339-3 0  9991
2 48423  34.9985   5.0418 0003297  80.2038 279.9043 15.02743552280201
Epoch: 2026-06-21T13:09Z
TLE epoch observation values (Epoch: 2026-06-21T13:09:32.836Z)
Latitude
0.00001°
Longitude
-102.09199°
Altitude
556.965 km
Speed
7.586 km/s
True Right ascension
00h 20m 10s
True Declination
0° 00' 00"
Sunlit
Object was in daylight at epoch
Visualization orbit readout
Latitude
Unknown
Longitude
Unknown
Altitude
Unknown
Speed
Unknown
Apparent Right ascension
Unknown
Apparent Declination
Unknown
Sunlit
N/A
Visualization observer readout
Local Sidereal Time
21:35:21
Azimuth
Unknown
Elevation
Unknown
Doppler factor
Unknown
Orbital elements
Apogee altitude
563.95 km
Perigee altitude
559.374 km
Semi-major axis
6,939.799 km
Eccentricity
0.00033
Inclination
34.9985°
RAAN
5.0418°
Arg. of periapsis
80.2038°
True anomaly
279.86708°
Mean anomaly
279.9043°
Eccentric anomaly
279.88569°
Mean motion
3.75425 °/min
Orbital period
95.89 mins
BSTAR
0.00015339
Loading maneuver chart data...
Computing Atmospheric mass density...
Loading historical data...
Loading historical data...
Loading historical data...
Loading historical data...
Loading historical data...
Loading historical data...
Loading historical data...
Other satellites on launch #39 in the year 2021 (2021-05-06 UTC)

Documentation

Showing up to 5 results
|